Time,TemperatureF,DewpointF,PressureIn,WindDirection,WindDirectionDegrees,WindSpeedMPH,WindSpeedGustMPH,Humidity,HourlyPrecipIn,Conditions,Clouds,dailyrainin,SoftwareType,DateUTC
2013-06-21 00:12:00,80.4,65.0,29.78,ESE,115,5.0,-999.0,60,-99.99,,,0.00,weatherlink.com 1.10,2013-06-21 05:12:00,
2013-06-21 00:27:00,80.2,65.0,29.78,ESE,108,4.0,-999.0,60,-99.99,,,0.00,weatherlink.com 1.10,2013-06-21 05:27:00,
2013-06-21 00:41:00,80.0,65.0,29.78,SSE,156,3.0,-999.0,61,-99.99,,,0.00,weatherlink.com 1.10,2013-06-21 05:41:00,
2013-06-21 00:55:00,79.2,66.0,29.75,SE,128,13.0,-999.0,63,-99.99,,,0.00,weatherlink.com 1.10,2013-06-21 05:55:00,
2013-06-21 01:09:00,78.8,66.0,29.75,ESE,116,8.0,-999.0,65,-99.99,,,0.00,weatherlink.com 1.10,2013-06-21 06:09:00,
2013-06-21 01:24:00,78.4,66.0,29.73,SE,131,6.0,-999.0,66,-99.99,,,0.00,weatherlink.com 1.10,2013-06-21 06:24:00,
2013-06-21 01:38:00,78.5,66.0,29.70,SE,143,6.0,-999.0,65,-99.99,,,0.00,weatherlink.com 1.10,2013-06-21 06:38:00,
2013-06-21 01:52:00,74.9,68.0,29.69,SE,131,12.0,-999.0,78,-99.99,,,0.21,weatherlink.com 1.10,2013-06-21 06:52:00,
2013-06-21 02:07:00,72.0,68.0,29.70,ESE,104,4.0,-999.0,86,-99.99,,,0.21,weatherlink.com 1.10,2013-06-21 07:07:00,
2013-06-21 02:21:00,72.1,68.0,29.69,SE,129,5.0,-999.0,86,-99.99,,,0.21,weatherlink.com 1.10,2013-06-21 07:21:00,
2013-06-21 02:35:00,72.1,68.0,29.70,East,79,5.0,-999.0,86,-99.99,,,0.24,weatherlink.com 1.10,2013-06-21 07:35:00,
2013-06-21 02:50:00,71.9,68.0,29.69,SSE,148,0.0,-999.0,87,-99.99,,,0.25,weatherlink.com 1.10,2013-06-21 07:50:00,
2013-06-21 03:04:00,72.4,68.0,29.68,SSE,162,0.0,-999.0,86,-99.99,,,0.25,weatherlink.com 1.10,2013-06-21 08:04:00,
2013-06-21 03:18:00,73.5,67.0,29.78,WNW,282,22.0,-999.0,81,-99.99,,,0.25,weatherlink.com 1.10,2013-06-21 08:18:00,
2013-06-21 03:33:00,67.7,63.0,29.81,SSW,206,11.0,-999.0,86,-99.99,,,0.73,weatherlink.com 1.10,2013-06-21 08:33:00,
2013-06-21 03:47:00,66.3,63.0,29.81,WNW,295,6.0,-999.0,89,-99.99,,,1.32,weatherlink.com 1.10,2013-06-21 08:47:00,
2013-06-21 04:01:00,66.0,63.0,29.81,WNW,295,10.0,-999.0,91,-99.99,,,1.52,weatherlink.com 1.10,2013-06-21 09:01:00,
2013-06-21 04:15:00,65.6,63.0,29.81,NW,322,12.0,-999.0,90,-99.99,,,1.57,weatherlink.com 1.10,2013-06-21 09:15:00,
2013-06-21 04:30:00,65.3,62.0,29.82,North,354,6.0,-999.0,89,-99.99,,,1.57,weatherlink.com 1.10,2013-06-21 09:30:00,
2013-06-21 04:44:00,65.0,61.0,29.81,NW,325,4.0,-999.0,88,-99.99,,,1.59,weatherlink.com 1.10,2013-06-21 09:44:00,
2013-06-21 04:58:00,65.0,61.0,29.83,NNE,23,7.0,-999.0,87,-99.99,,,1.60,weatherlink.com 1.10,2013-06-21 09:58:00,
2013-06-21 05:12:00,65.1,61.0,29.82,NNE,20,6.0,-999.0,87,-99.99,,,1.61,weatherlink.com 1.10,2013-06-21 10:12:00,
2013-06-21 05:27:00,65.0,61.0,29.82,NW,320,9.0,-999.0,87,-99.99,,,1.63,weatherlink.com 1.10,2013-06-21 10:27:00,
2013-06-21 05:41:00,64.8,61.0,29.79,NE,56,10.0,-999.0,88,-99.99,,,1.66,weatherlink.com 1.10,2013-06-21 10:41:00,
2013-06-21 12:21:00,73.5,64.0,29.86,NE,49,4.0,-999.0,73,-99.99,,,1.66,weatherlink.com 1.10,2013-06-21 17:21:00,
2013-06-21 12:54:00,74.4,66.0,29.85,East,87,3.0,-999.0,74,-99.99,,,1.66,weatherlink.com 1.10,2013-06-21 17:54:00,
2013-06-21 13:10:00,74.6,67.0,29.86,NE,53,3.0,-999.0,76,-99.99,,,1.66,weatherlink.com 1.10,2013-06-21 18:10:00,
2013-06-21 13:26:00,75.5,67.0,29.87,East,82,6.0,-999.0,74,-99.99,,,1.66,weatherlink.com 1.10,2013-06-21 18:26:00,
2013-06-21 13:59:00,76.1,66.0,29.86,East,86,4.0,-999.0,71,-99.99,,,1.66,weatherlink.com 1.10,2013-06-21 18:59:00,
2013-06-21 14:15:00,76.2,65.0,29.87,East,85,5.0,-999.0,69,-99.99,,,1.66,weatherlink.com 1.10,2013-06-21 19:15:00,
2013-06-21 14:31:00,76.5,66.0,29.86,SE,127,7.0,-999.0,71,-99.99,,,1.66,weatherlink.com 1.10,2013-06-21 19:31:00,
2013-06-21 14:48:00,76.5,67.0,29.86,ESE,114,4.0,-999.0,73,-99.99,,,1.66,weatherlink.com 1.10,2013-06-21 19:48:00,
2013-06-21 15:04:00,76.1,66.0,29.87,East,84,7.0,-999.0,71,-99.99,,,1.66,weatherlink.com 1.10,2013-06-21 20:04:00,
2013-06-21 15:20:00,76.5,68.0,29.86,ESE,105,2.0,-999.0,74,-99.99,,,1.66,weatherlink.com 1.10,2013-06-21 20:20:00,
2013-06-21 15:36:00,77.5,68.0,29.85,ENE,76,5.0,-999.0,72,-99.99,,,1.66,weatherlink.com 1.10,2013-06-21 20:36:00,
2013-06-21 15:52:00,78.1,68.0,29.84,East,79,3.0,-999.0,71,-99.99,,,1.66,weatherlink.com 1.10,2013-06-21 20:52:00,
2013-06-21 16:09:00,78.3,69.0,29.84,ENE,70,5.0,-999.0,72,-99.99,,,1.66,weatherlink.com 1.10,2013-06-21 21:09:00,
2013-06-21 16:23:00,77.7,68.0,29.82,East,83,5.0,-999.0,72,-99.99,,,1.66,weatherlink.com 1.10,2013-06-21 21:23:00,
2013-06-21 16:37:00,78.3,68.0,29.83,ESE,115,4.0,-999.0,71,-99.99,,,1.66,weatherlink.com 1.10,2013-06-21 21:37:00,
2013-06-21 16:52:00,78.2,68.0,29.83,NNE,18,3.0,-999.0,71,-99.99,,,1.66,weatherlink.com 1.10,2013-06-21 21:52:00,
2013-06-21 17:06:00,77.4,68.0,29.84,East,88,1.0,-999.0,74,-99.99,,,1.66,weatherlink.com 1.10,2013-06-21 22:06:00,
2013-06-21 17:20:00,78.7,69.0,29.85,East,100,3.0,-999.0,72,-99.99,,,1.66,weatherlink.com 1.10,2013-06-21 22:20:00,
2013-06-21 17:34:00,78.2,68.0,29.87,East,92,5.0,-999.0,72,-99.99,,,1.66,weatherlink.com 1.10,2013-06-21 22:34:00,
2013-06-21 17:49:00,77.7,68.0,29.86,East,81,0.0,-999.0,73,-99.99,,,1.66,weatherlink.com 1.10,2013-06-21 22:49:00,
2013-06-21 18:03:00,77.2,68.0,29.87,East,79,3.0,-999.0,73,-99.99,,,1.66,weatherlink.com 1.10,2013-06-21 23:03:00,
2013-06-21 18:17:00,77.1,68.0,29.88,East,80,1.0,-999.0,73,-99.99,,,1.66,weatherlink.com 1.10,2013-06-21 23:17:00,
2013-06-21 18:32:00,76.7,68.0,29.88,East,87,1.0,-999.0,75,-99.99,,,1.66,weatherlink.com 1.10,2013-06-21 23:32:00,
2013-06-21 18:46:00,76.7,68.0,29.91,East,87,1.0,-999.0,75,-99.99,,,1.66,weatherlink.com 1.10,2013-06-21 23:46:00,
2013-06-21 19:00:00,76.5,68.0,29.90,ENE,78,1.0,-999.0,75,-99.99,,,1.66,weatherlink.com 1.10,2013-06-22 00:00:00,
2013-06-21 19:14:00,74.7,69.0,29.93,SSW,211,3.0,-999.0,83,-99.99,,,1.71,weatherlink.com 1.10,2013-06-22 00:14:00,
2013-06-21 20:22:00,63.6,61.0,29.93,ENE,75,4.0,-999.0,90,-99.99,,,2.21,weatherlink.com 1.10,2013-06-22 01:22:00,
2013-06-21 20:36:00,63.9,61.0,29.91,NNE,15,9.0,-999.0,89,-99.99,,,2.21,weatherlink.com 1.10,2013-06-22 01:36:00,
2013-06-21 20:50:00,64.6,61.0,29.91,NE,56,2.0,-999.0,88,-99.99,,,2.21,weatherlink.com 1.10,2013-06-22 01:50:00,
2013-06-21 21:05:00,65.0,61.0,29.90,East,88,4.0,-999.0,87,-99.99,,,2.21,weatherlink.com 1.10,2013-06-22 02:05:00,
2013-06-21 21:19:00,65.4,61.0,29.91,East,93,4.0,-999.0,87,-99.99,,,2.21,weatherlink.com 1.10,2013-06-22 02:19:00,
2013-06-21 21:33:00,65.8,62.0,29.90,ENE,68,4.0,-999.0,89,-99.99,,,2.22,weatherlink.com 1.10,2013-06-22 02:33:00,
2013-06-21 21:47:00,66.1,63.0,29.89,ENE,76,4.0,-999.0,90,-99.99,,,2.22,weatherlink.com 1.10,2013-06-22 02:47:00,
2013-06-21 22:01:00,66.5,63.0,29.90,SE,133,5.0,-999.0,90,-99.99,,,2.22,weatherlink.com 1.10,2013-06-22 03:01:00,
2013-06-21 22:16:00,66.6,64.0,29.88,ESE,111,5.0,-999.0,90,-99.99,,,2.22,weatherlink.com 1.10,2013-06-22 03:16:00,
2013-06-21 22:30:00,66.3,63.0,29.84,East,83,6.0,-999.0,90,-99.99,,,2.22,weatherlink.com 1.10,2013-06-22 03:30:00,
2013-06-21 22:44:00,66.4,63.0,29.84,East,101,5.0,-999.0,90,-99.99,,,2.22,weatherlink.com 1.10,2013-06-22 03:44:00,
2013-06-21 22:58:00,66.7,63.0,29.85,ESE,108,4.0,-999.0,89,-99.99,,,2.22,weatherlink.com 1.10,2013-06-22 03:58:00,
2013-06-21 23:13:00,66.7,63.0,29.83,ENE,73,4.0,-999.0,88,-99.99,,,2.22,weatherlink.com 1.10,2013-06-22 04:13:00,
2013-06-21 23:27:00,66.7,63.0,29.91,West,278,9.0,-999.0,88,-99.99,,,2.22,weatherlink.com 1.10,2013-06-22 04:27:00,
2013-06-21 23:41:00,67.5,63.0,29.93,SE,128,2.0,-999.0,86,-99.99,,,2.22,weatherlink.com 1.10,2013-06-22 04:41:00,
2013-06-21 23:55:00,67.8,63.0,29.93,SE,127,5.0,-999.0,85,-99.99,,,2.27,weatherlink.com 1.10,2013-06-22 04:55:00,